Location: Unspecified
(49.2170°N, 0.0000°E)
Time: 12:21:24
(UTC+00:00)

Vanguard 3 - Pass Details

Date: 28 January 2021
Orbit: 508 x 3261 km, 33.3° (Epoch: 28 February)

Event Time Altitude Azimuth Distance (km) Brightness Sun altitude
Rises 05:46:02 0° 251° (WSW) 3,803 - -18.0°
Reaches altitude 10° 05:48:43 10° 239° (WSW) 3,163 - -17.5°
Exits shadow 05:49:20 12° 235° (SW) 3,049 9.7 -17.4°
Maximum altitude 05:55:20 27° 185° (S) 2,803 9.9 -16.5°
Drops below altitude 10° 06:05:24 10° 135° (SE) 4,950 12.0 -14.8°
Sets 06:11:01 0° 126° (SE) 6,418 13.0 -13.9°
